User: anonymous   Login
Location: Unspecified
(0.0000°N, 0.0000°E)
Time: 19:06:41
(UTC+00:00)
Language:

EUCROPIS - Orbit

View from above orbital plane
View from above orbital plane
View from above satellite
View from above satellite

Ground track
Ground track

The orbit data is extracted from the following two-line orbital elements,

1 43807U 18099BB  23029.12379699  .00004196  00000-0  35678-3 0  9993
2 43807  97.5982  96.0541 0011356 218.2449 141.7970 14.98325975226265
Epoch (UTC): 29 January 2023 02:58:16
Eccentricity: 0.0011356
inclination: 97.5982°
perigee height: 564 km
apogee height: 580 km
right ascension of ascending node: 96.0541°
argument of perigee: 218.2449°
revolutions per day: 14.98325975
mean anomaly at epoch: 141.7970°
orbit number at epoch: 22626

The dashed part of the orbit path shows where the satellite is in the earth's shadow,  

DLR